[[{"header":{"parameterUnit":"m.s-1","parameterCategory":1,"la1":30.2991,"la2":30.254,"lo1":-89.0895,"lo2":-89.0444,"dy":0.0017,"dx":0.0017,"nx":28,"ny":28,"refTime":"2024-03-11T21:00:00:Z","depth":0,"parameterNumber":2,"parameterNumberName":"U-component_of_WINDS"},"data":[0,0,0,0,0,0,0,0,0,0,0,0,0,0,0,0,0,0,0,0,0,0,0,0,0,0,0,0,0,0,0,0,0,0,0,0,0,0,0,0,0,0,0,0,0,0,0,0,0,0,0,0,0,0,0,0,0,0,-0.6637,-0.6638,0,-0.671,-0.671,-0.6711,-0.6721,-0.672,-0.672,-0.6719,-0.6796,-0.6798,-0.6801,0,0,0,0,0,0,0,0,0,0,0,0,0,-0.6511,-0.6513,-0.6637,-0.6638,-0.6639,-0.6709,-0.671,-0.6711,-0.6721,-0.672,-0.672,-0.6719,-0.6795,-0.6798,-0.6801,0,0,0,0,0,0,0,0,0,0,0,0,0,-0.6573,-0.6514,-0.6637,-0.6652,-0.6654,-0.6709,-0.671,-0.6712,-0.6721,-0.672,-0.6719,-0.6718,-0.6794,-0.6798,-0.6802,-0.6847,0,0,-0.6814,-0.6816,0,0,0,0,0,0,0,0,-0.6569,-0.6578,-0.6649,-0.6651,-0.6654,-0.6705,-0.6694,-0.6757,-0.6722,-0.6696,-0.6719,-0.6718,-0.6767,-0.6773,-0.6789,-0.685,-0.6854,-0.6814,-0.6817,-0.6818,-0.6819,0,0,0,0,0,0,0,-0.6565,-0.6575,-0.6666,-0.665,-0.6653,-0.6657,-0.6664,-0.6706,-0.6736,-0.6698,-0.6699,-0.6707,-0.6768,-0.6785,-0.679,-0.6855,-0.6814,-0.6818,-0.682,-0.6822,-0.696,-0.6961,0,0,0,0,0,0,-0.6558,-0.6571,-0.6664,-0.6668,-0.6608,-0.666,-0.6668,-0.669,-0.6736,-0.6742,-0.6708,-0.6708,-0.6778,-0.6786,-0.6793,-0.6851,-0.6818,-0.6822,-0.6824,-0.6958,-0.696,-0.6961,0,0,0,0,0,0,-0.6555,-0.6566,-0.6661,-0.662,-0.6632,-0.6663,-0.6687,-0.6692,-0.6709,-0.6743,-0.6749,-0.672,-0.6778,-0.6788,-0.6834,-0.6854,-0.6824,-0.6827,-0.6957,-0.6959,-0.6961,-0.6966,0,0,0,0,0,0,-0.6551,-0.6565,-0.6581,-0.662,-0.6634,-0.6699,-0.6688,-0.6694,-0.6715,-0.6715,-0.6756,-0.6762,-0.6778,-0.6828,-0.6838,-0.6859,-0.6831,-0.6955,-0.6958,-0.696,-0.6964,-0.6968,-0.6971,0,0,0,0,0,-0.6547,-0.658,-0.6582,-0.6593,-0.6656,-0.67,-0.6708,-0.6726,-0.6717,-0.6735,-0.6757,-0.676,-0.6849,-0.6832,-0.6844,-0.6866,-0.6954,-0.6957,-0.696,-0.6963,-0.6967,-0.6971,0,0,0,0,0,0,-0.6544,-0.6585,-0.6588,-0.6635,-0.6664,-0.6702,-0.6725,-0.6729,-0.6762,-0.6761,-0.6782,-0.6791,-0.6836,-0.6856,-0.6836,-0.6914,-0.6901,-0.6907,-0.6899,-0.6904,-0.6907,-0.6902,-0.6834,0,0,0,0,0,-0.6548,-0.658,-0.6615,-0.6653,-0.6667,-0.6693,-0.6713,-0.6724,-0.6755,-0.6768,-0.6794,-0.6825,-0.686,-0.6883,-0.6917,-0.6966,-0.6977,-0.6988,-0.6991,-0.6994,-0.6998,-0.7028,-0.7034,-0.6971,-0.6971,-0.6971,0,0,-0.6559,-0.6585,-0.6604,-0.6653,-0.6677,-0.6711,-0.6704,-0.6739,-0.6765,-0.6774,-0.6819,-0.6839,-0.6875,-0.6924,-0.6946,-0.6941,-0.7018,-0.6997,-0.6999,-0.7003,-0.7032,-0.7038,-0.7043,-0.6973,-0.6972,-0.6972,0,0,-0.6595,-0.6617,-0.6652,-0.6676,-0.6712,-0.6729,-0.6738,-0.6775,-0.6789,-0.6834,-0.6842,-0.6873,-0.6933,-0.6959,-0.698,-0.7027,-0.7032,-0.7037,-0.7056,-0.7084,-0.7089,-0.7094,-0.7113,-0.7119,-0.7042,-0.7042,-0.7042,0,-0.6603,-0.6653,-0.667,-0.6706,-0.6728,-0.6736,-0.6773,-0.6796,-0.6841,-0.6857,-0.685,-0.6926,-0.6951,-0.7007,-0.7018,-0.7034,-0.7046,-0.7034,-0.7087,-0.7092,-0.7096,-0.7115,-0.7121,-0.7042,-0.7042,-0.7042,-0.7042,0,-0.6663,-0.6698,-0.6722,-0.6766,-0.679,-0.6826,-0.6849,-0.6872,-0.6881,-0.69,-0.6947,-0.6977,-0.7018,-0.7032,-0.7041,-0.709,-0.7086,-0.7082,-0.7071,-0.7103,-0.712,-0.7127,-0.7043,-0.7043,-0.7043,-0.7043,0,0,-0.67,-0.6752,-0.6761,-0.6782,-0.6822,-0.685,-0.6887,-0.6927,-0.6947,-0.6978,-0.7011,-0.7062,-0.706,-0.7084,-0.7095,-0.712,-0.7158,-0.7115,-0.7116,-0.7123,-0.7216,-0.7219,-0.7227,-0.7161,-0.7162,-0.7163,-0.7214,0,-0.6743,-0.6808,-0.6824,-0.6881,-0.6914,-0.6923,-0.6956,-0.6985,-0.7003,-0.7035,-0.7055,-0.7092,-0.7085,-0.71,-0.7125,-0.7148,-0.7177,-0.7145,-0.7194,-0.7195,-0.7186,-0.7236,-0.7239,-0.7285,-0.7221,-0.7222,-0.7223,0,-0.6801,-0.6833,-0.6893,-0.693,-0.6945,-0.6974,-0.7012,-0.7042,-0.7076,-0.7088,-0.7115,-0.7124,-0.7165,-0.715,-0.7207,-0.7184,-0.7205,-0.722,-0.7222,-0.7229,-0.7212,-0.7246,-0.73,-0.7308,-0.7233,-0.7232,-0.7231,0,-0.6825,-0.6883,-0.6926,-0.6943,-0.6988,-0.7008,-0.7028,-0.706,-0.7084,-0.7117,-0.7133,-0.7171,-0.7193,-0.7223,-0.7243,-0.723,-0.7299,-0.7286,-0.7312,-0.7312,-0.7327,-0.7326,-0.7388,-0.7338,-0.7338,-0.7337,-0.7337,0,-0.6871,-0.6908,-0.6938,-0.6965,-0.7007,-0.7025,-0.7067,-0.7087,-0.7116,-0.7148,-0.7158,-0.7188,-0.7212,-0.7246,-0.7262,-0.7308,-0.7317,-0.7329,-0.7334,-0.733,-0.7328,-0.7345,-0.7343,-0.7339,-0.7339,-0.7338,-0.7338,0,-0.6905,-0.6926,-0.6975,-0.7013,-0.7023,-0.7053,-0.7086,-0.7113,-0.7132,-0.7173,-0.7183,-0.7213,-0.7253,-0.7276,-0.7327,-0.7338,-0.739,-0.7392,-0.7379,-0.7381,-0.7407,-0.7405,-0.7482,-0.7494,-0.7434,-0.7435,-0.7435,0,-0.6935,-0.6963,-0.7004,-0.7026,-0.7046,-0.7081,-0.7105,-0.7124,-0.7149,-0.719,-0.7213,-0.7254,-0.7288,-0.7353,-0.738,-0.7419,-0.7423,-0.7448,-0.7429,-0.7425,-0.7426,-0.7425,-0.7429,-0.7452,-0.7452,-0.7453,-0.7453,0,-0.6985,-0.6995,-0.7028,-0.7066,-0.7094,-0.7125,-0.7155,-0.7173,-0.7198,-0.7226,-0.7267,-0.7293,-0.7346,-0.7387,-0.7429,-0.745,-0.7457,-0.7458,-0.7467,-0.7464,-0.7456,-0.7463,-0.7389,-0.7457,-0.7456,-0.7456,-0.7456,-0.7456,-0.702,-0.7046,-0.7079,-0.7117,-0.7142,-0.717,-0.7198,-0.722,-0.7255,-0.7299,-0.7308,-0.7352,-0.7387,-0.7444,-0.7466,-0.7502,-0.7498,-0.7509,-0.7513,-0.7516,-0.7518,-0.7449,-0.7509,-0.7509,-0.7509,-0.7509,-0.7509,0,-0.7073,-0.7094,-0.7128,-0.7171,-0.7201,-0.7203,-0.7237,-0.7263,-0.7301,-0.7332,-0.7365,-0.7414,-0.7454,-0.7484,-0.7526,-0.7549,-0.7553,-0.7559,-0.7559,-0.7564,-0.7518,-0.7508,-0.7555,-0.7555,-0.7555,-0.7555,-0.7555,-0.7555,-0.7104,-0.7149,-0.7162,-0.7221,-0.7243,-0.7285,-0.7305,-0.7332,-0.7357,-0.7411,-0.7444,-0.7463,-0.7494,-0.7539,-0.7576,-0.7584,-0.76,-0.7606,-0.7615,-0.7572,-0.7567,-0.7562,-0.7553,-0.7609,-0.7609,-0.7658,-0.7658,-0.7659]},{"header":{"parameterUnit":"m.s-1","parameterCategory":1,"la1":30.2991,"la2":30.254,"lo1":-89.0895,"lo2":-89.0444,"dy":0.0017,"dx":0.0017,"nx":28,"ny":28,"refTime":"2024-03-11T21:00:00:Z","depth":0,"parameterNumber":3,"parameterNumberName":"V-component_of_WINDS"},"data":[0,0,0,0,0,0,0,0,0,0,0,0,0,0,0,0,0,0,0,0,0,0,0,0,0,0,0,0,0,0,0,0,0,0,0,0,0,0,0,0,0,0,0,0,0,0,0,0,0,0,0,0,0,0,0,0,0,0,-1.3416,-1.3417,0,-1.3497,-1.3497,-1.3498,-1.3556,-1.3557,-1.3557,-1.3558,-1.3641,-1.3643,-1.3645,0,0,0,0,0,0,0,0,0,0,0,0,0,-1.3314,-1.3316,-1.3416,-1.3417,-1.3418,-1.3496,-1.3497,-1.3499,-1.3556,-1.3557,-1.3558,-1.3558,-1.3641,-1.3643,-1.3645,0,0,0,0,0,0,0,0,0,0,0,0,0,-1.3373,-1.3316,-1.3416,-1.3456,-1.3461,-1.3496,-1.3498,-1.3499,-1.3556,-1.3557,-1.3558,-1.3558,-1.364,-1.3642,-1.3645,-1.3647,0,0,-1.3653,-1.3654,0,0,0,0,0,0,0,0,-1.3369,-1.3376,-1.3449,-1.3454,-1.3459,-1.3517,-1.3492,-1.3549,-1.3556,-1.352,-1.3558,-1.3559,-1.3599,-1.3605,-1.3619,-1.3651,-1.3654,-1.3653,-1.3655,-1.3656,-1.3657,0,0,0,0,0,0,0,-1.3365,-1.3373,-1.3448,-1.345,-1.3456,-1.3471,-1.348,-1.3503,-1.3555,-1.3523,-1.3528,-1.3536,-1.3602,-1.3616,-1.3621,-1.3656,-1.3653,-1.3656,-1.3657,-1.3658,-1.3693,-1.3693,0,0,0,0,0,0,-1.3355,-1.3369,-1.3445,-1.345,-1.3415,-1.3472,-1.3482,-1.3498,-1.3555,-1.3564,-1.3536,-1.3539,-1.3611,-1.3618,-1.3624,-1.363,-1.3656,-1.3659,-1.366,-1.3694,-1.3693,-1.3693,0,0,0,0,0,0,-1.3352,-1.3361,-1.3442,-1.3411,-1.3423,-1.3473,-1.349,-1.3499,-1.3513,-1.3564,-1.3574,-1.354,-1.3612,-1.3621,-1.3641,-1.3634,-1.366,-1.3662,-1.3695,-1.3694,-1.3693,-1.3642,0,0,0,0,0,0,-1.3349,-1.336,-1.336,-1.3411,-1.3424,-1.3457,-1.3489,-1.35,-1.3517,-1.3522,-1.3571,-1.358,-1.3613,-1.3637,-1.3644,-1.3638,-1.3664,-1.3696,-1.3694,-1.3693,-1.3644,-1.3639,-1.3634,0,0,0,0,0,-1.3345,-1.3343,-1.336,-1.3369,-1.3426,-1.3456,-1.3464,-1.3502,-1.3517,-1.3518,-1.3551,-1.3578,-1.3634,-1.3638,-1.3647,-1.3642,-1.3696,-1.3695,-1.3693,-1.3646,-1.364,-1.3635,0,0,0,0,0,0,-1.3291,-1.335,-1.337,-1.3384,-1.3414,-1.3466,-1.3469,-1.3494,-1.3522,-1.3525,-1.3572,-1.3582,-1.3598,-1.3622,-1.3626,-1.3647,-1.3669,-1.3669,-1.363,-1.3624,-1.362,-1.3613,-1.3667,0,0,0,0,0,-1.328,-1.3299,-1.3351,-1.3358,-1.3372,-1.3418,-1.3432,-1.3459,-1.3493,-1.3506,-1.354,-1.3572,-1.3597,-1.3612,-1.3638,-1.3648,-1.366,-1.3649,-1.3644,-1.364,-1.3639,-1.3647,-1.3642,-1.3688,-1.3688,-1.3688,0,0,-1.3259,-1.3294,-1.3303,-1.3348,-1.3375,-1.3394,-1.3428,-1.3447,-1.3461,-1.3509,-1.353,-1.3556,-1.3595,-1.361,-1.3619,-1.3631,-1.363,-1.3638,-1.3635,-1.3636,-1.3645,-1.364,-1.3636,-1.3687,-1.3687,-1.3687,0,0,-1.323,-1.3258,-1.3267,-1.3293,-1.3334,-1.3364,-1.3366,-1.3414,-1.3433,-1.3455,-1.3491,-1.3509,-1.3551,-1.3577,-1.3595,-1.3577,-1.3603,-1.3584,-1.3558,-1.3565,-1.3561,-1.3558,-1.3551,-1.3548,-1.3583,-1.3583,-1.3583,0,-1.3198,-1.3228,-1.3269,-1.3285,-1.3304,-1.3348,-1.3358,-1.3381,-1.3428,-1.344,-1.3453,-1.3506,-1.3535,-1.3557,-1.3552,-1.3566,-1.357,-1.3578,-1.3558,-1.3556,-1.3554,-1.3547,-1.3544,-1.358,-1.3581,-1.3581,-1.3581,0,-1.3187,-1.3207,-1.3209,-1.3252,-1.3272,-1.3284,-1.3328,-1.3343,-1.3368,-1.3397,-1.3419,-1.3456,-1.3489,-1.3497,-1.3522,-1.3522,-1.3529,-1.3549,-1.3572,-1.3546,-1.3541,-1.3539,-1.3576,-1.3577,-1.3578,-1.3579,0,0,-1.3124,-1.319,-1.3191,-1.3211,-1.3258,-1.3275,-1.329,-1.3323,-1.3334,-1.3365,-1.3379,-1.3413,-1.3433,-1.3454,-1.3483,-1.3489,-1.3471,-1.3509,-1.3511,-1.35,-1.3473,-1.3456,-1.3452,-1.3489,-1.3489,-1.3488,-1.3469,0,-1.3102,-1.313,-1.3168,-1.3184,-1.3203,-1.3246,-1.3259,-1.329,-1.3318,-1.3338,-1.337,-1.3393,-1.3417,-1.343,-1.3438,-1.3471,-1.3466,-1.3473,-1.3502,-1.3503,-1.349,-1.345,-1.3432,-1.3412,-1.3468,-1.3467,-1.3467,0,-1.3079,-1.3107,-1.3125,-1.3171,-1.318,-1.3191,-1.3224,-1.3243,-1.328,-1.3299,-1.3323,-1.3354,-1.3373,-1.3394,-1.342,-1.3424,-1.3439,-1.3457,-1.3457,-1.346,-1.3482,-1.3451,-1.3407,-1.3403,-1.3464,-1.3465,-1.3465,0,-1.3031,-1.3073,-1.3089,-1.3105,-1.316,-1.3166,-1.3189,-1.3226,-1.3244,-1.3273,-1.3285,-1.3316,-1.3332,-1.3356,-1.3395,-1.3407,-1.3417,-1.3441,-1.3434,-1.3433,-1.3433,-1.3432,-1.3389,-1.3444,-1.3444,-1.3444,-1.3444,0,-1.3001,-1.301,-1.3068,-1.3078,-1.3089,-1.3133,-1.3144,-1.3171,-1.3203,-1.3219,-1.3259,-1.3273,-1.3324,-1.3345,-1.3375,-1.3392,-1.34,-1.3416,-1.3424,-1.3412,-1.341,-1.3421,-1.3423,-1.3443,-1.3443,-1.3443,-1.3443,0,-1.2948,-1.2988,-1.3008,-1.3058,-1.3071,-1.3077,-1.312,-1.3131,-1.3162,-1.3181,-1.3189,-1.3236,-1.3263,-1.3304,-1.3343,-1.3363,-1.3375,-1.3388,-1.3362,-1.3367,-1.3356,-1.3356,-1.3319,-1.3316,-1.3372,-1.3372,-1.3371,0,-1.2926,-1.2934,-1.2984,-1.2998,-1.3019,-1.304,-1.3058,-1.3102,-1.3119,-1.3161,-1.3167,-1.3197,-1.3222,-1.3262,-1.3301,-1.333,-1.3345,-1.3329,-1.3349,-1.3337,-1.3343,-1.3342,-1.3343,-1.3324,-1.3323,-1.3323,-1.3322,0,-1.2882,-1.2901,-1.2925,-1.2955,-1.2975,-1.3001,-1.303,-1.3039,-1.3089,-1.3106,-1.3133,-1.3153,-1.3192,-1.3221,-1.3256,-1.3281,-1.331,-1.3316,-1.3315,-1.3303,-1.3287,-1.3294,-1.3348,-1.3316,-1.3317,-1.3317,-1.3317,-1.3318,-1.2843,-1.2852,-1.2889,-1.2914,-1.294,-1.2966,-1.2979,-1.3011,-1.3034,-1.3069,-1.3094,-1.3119,-1.3156,-1.3206,-1.3229,-1.325,-1.3263,-1.3263,-1.3262,-1.3261,-1.3256,-1.3284,-1.3257,-1.3257,-1.3257,-1.3258,-1.3258,0,-1.2801,-1.2827,-1.2849,-1.2888,-1.2907,-1.2933,-1.2966,-1.2981,-1.3002,-1.3034,-1.3058,-1.309,-1.3118,-1.3158,-1.319,-1.3198,-1.3212,-1.3205,-1.3204,-1.3209,-1.3244,-1.324,-1.3193,-1.3193,-1.3193,-1.3193,-1.3193,-1.3193,-1.2781,-1.2797,-1.282,-1.285,-1.2877,-1.2901,-1.2918,-1.2942,-1.2967,-1.3,-1.3023,-1.3049,-1.3085,-1.3119,-1.3146,-1.3157,-1.3167,-1.3155,-1.317,-1.3201,-1.3207,-1.3213,-1.321,-1.3157,-1.3157,-1.3134,-1.3134,-1.3134]}]]